Wind_Speed
25 25 25 25 26 26 27 27 26 27 28 29 30 30 31 31 31 31 31 30 30 30 29 29 29 29 29 30 31 31 32 32 32 32 32 32 32 33
23 23 23 24 24 24 25 25 25 26 27 28 29 29 30 30 30 30 30 30 30 30 30 29 29 29 29 29 30 31 32 32 33 34 33 33 33 33
22 22 23 22 23 22 23 24 25 25 26 26 26 26 27 27 28 29 29 29 29 30 30 30 29 29 30 30 30 31 32 33 33 34 34 34 34 35
21 22 22 22 22 22 22 23 24 23 23 24 25 25 25 26 26 27 27 28 28 28 29 29 29 30 30 30 30 30 31 32 33 33 34 34 35 35
21 21 21 20 20 21 21 21 21 22 22 22 23 24 24 24 24 25 26 26 27 27 27 28 28 28 28 29 29 29 29 30 30 31 31 32 32 32
19 18 18 18 19 19 20 20 20 21 21 22 22 22 22 23 23 23 23 24 25 26 26 26 27 27 27 27 28 28 28 28 28 29 28 29 29 29
16 15 16 16 17 18 18 18 19 20 20 20 20 20 20 21 21 21 22 22 22 23 24 25 26 26 26 27 27 26 26 27 27 27 27 27 27 27
14 15 15 16 17 17 17 17 18 18 18 18 19 19 19 19 19 20 20 20 21 21 22 22 24 24 25 24 25 25 25 25 24 24 25 25 26 26
13 14 15 15 15 16 16 16 16 16 16 16 16 16 17 17 17 17 18 18 18 18 18 19 20 20 21 21 21 22 22 22 22 22 23 24 24 25
13 13 13 13 13 13 13 13 13 13 13 14 14 14 14 14 15 15 15 16 16 15 15 15 16 17 18 19 19 20 20 21 21 21 22 23 23 24
12 12 12 11 11 11 11 10 10 10 11 12 12 13 12 12 12 12 13 14 14 15 15 15 15 16 17 17 18 18 19 19 20 21 21 23 24 25
10 10 10 9 9 9 8 8 8 8 9 9 10 10 9 9 10 10 11 12 13 13 13 14 15 15 14 15 16 16 17 18 18 19 20 21 23 24
10 9 8 8 7 6 6 7 7 7 7 7 7 8 8 8 9 9 10 11 12 12 12 13 13 13 12 13 14 14 15 16 16 17 19 20 21 22
9 8 8 6 5 5 5 6 6 6 6 6 7 7 7 7 7 8 9 10 10 11 11 11 11 11 11 12 12 13 13 14 15 16 17 18 19 20
9 8 8 7 6 5 5 4 4 4 4 5 5 5 6 6 7 7 8 8 8 10 10 11 11 11 11 12 12 13 14 15 15 16 16 18 19 19
9 9 8 8 7 5 4 4 4 4 4 4 4 5 6 6 6 7 7 8 8 8 9 9 9 10 11 12 13 13 14 15 15 16 17 18 19 19
10 9 8 8 7 7 6 5 5 4 3 4 5 5 6 6 6 6 6 7 7 8 9 9 10 11 11 12 13 14 15 15 16 18 18 19 20 21
10 10 9 8 8 7 7 6 5 4 3 3 4 5 6 6 6 7 7 8 8 9 10 11 11 12 13 13 15 16 16 18 18 19 20 21 21 22
11 11 10 9 9 8 7 7 6 5 5 6 6 6 6 7 7 8 8 9 10 11 12 13 13 14 15 15 16 18 19 19 20 20 21 22 23 23
12 11 11 10 10 10 9 8 7 7 7 7 8 8 7 8 9 10 10 11 12 13 13 14 15 16 17 17 17 18 19 21 21 22 23 24 24 24
12 12 12 11 11 11 10 10 9 9 9 9 9 9 9 9 10 11 11 12 13 14 14 15 16 17 18 18 18 19 20 22 24 25 26 26 25 25
13 13 13 12 11 11 11 11 11 11 10 10 10 10 10 11 11 12 13 13 15 15 16 17 18 18 19 20 21 22 23 24 25 26 27 27 26 26
14 13 13 13 12 12 12 12 12 12 12 12 12 12 12 13 13 14 15 15 16 17 18 19 19 20 21 22 23 24 26 26 27 27 27 28 27 27
Wind_Direction
278 276 271 270 268 265 264 262 259 256 254 255 256 256 256 255 255 254 253 253 253 254 255 255 256 258 260 262 261 261 262 262 262 262 264 265 265 267
278 276 272 271 270 267 264 262 260 258 256 255 256 255 255 255 254 253 252 252 253 254 255 256 257 258 260 261 262 262 263 263 263 264 264 264 265 266
280 277 273 270 268 268 267 264 262 261 259 257 256 256 257 256 254 254 254 254 254 255 255 256 257 258 260 261 263 265 264 264 264 264 265 265 264 265
282 279 275 272 270 269 269 267 265 263 261 259 257 258 257 256 254 254 254 253 254 255 256 256 258 260 262 262 264 265 266 266 265 265 265 266 267 266
284 280 277 274 271 270 268 267 265 263 262 261 260 259 258 257 256 256 256 254 254 255 257 258 261 262 263 263 264 265 267 268 266 266 266 267 268 267
285 282 279 275 273 272 268 266 265 264 262 261 260 258 258 257 257 255 255 255 256 256 258 259 262 263 264 265 266 267 268 268 268 267 268 268 268 268
287 284 282 279 277 276 273 270 268 266 264 264 261 259 259 259 258 257 255 255 257 260 261 262 262 263 264 266 267 269 270 269 269 268 269 268 267 268
291 287 284 281 279 277 276 274 271 268 265 265 263 261 260 259 259 257 255 256 259 261 263 263 263 263 264 267 268 269 270 271 270 269 270 270 270 270
297 292 289 286 283 280 278 276 272 268 267 267 265 263 258 257 257 255 255 256 258 259 262 265 266 266 266 270 270 268 269 270 270 270 270 271 271 271
306 303 297 291 284 284 280 277 273 267 262 261 262 263 261 260 256 256 255 256 257 259 261 264 265 268 268 271 273 273 272 272 272 271 271 271 272 273
314 311 306 299 292 286 284 281 274 267 263 263 261 262 263 261 257 255 255 256 258 260 261 264 266 269 271 274 276 275 274 274 276 276 276 276 277 278
325 318 313 308 302 295 291 285 277 270 267 264 261 262 263 261 256 254 256 259 260 261 264 267 269 273 273 274 277 278 277 278 279 281 282 282 283 283
341 334 327 320 313 307 301 293 285 278 271 268 262 261 259 257 258 257 257 260 260 264 268 271 273 276 277 276 278 281 283 283 284 287 288 288 286 285
355 355 347 335 328 322 312 302 289 280 272 270 269 264 262 265 267 269 267 263 264 269 269 274 278 280 280 282 285 287 288 290 291 293 292 291 290 289
3 3 1 357 349 340 332 320 305 290 278 273 271 272 274 277 275 272 272 270 271 275 274 275 278 280 282 286 289 291 293 294 297 299 299 296 295 293
8 7 7 4 358 352 346 337 323 307 285 278 275 278 281 281 280 279 277 274 276 279 278 278 282 286 288 289 291 293 296 297 299 302 304 302 300 297
11 12 9 9 10 11 5 356 342 330 314 296 286 278 276 278 281 282 281 280 284 285 284 284 285 289 292 294 297 299 299 300 301 302 302 303 302 299
11 12 12 12 11 13 9 2 355 344 328 315 308 294 285 285 287 287 289 287 286 288 288 289 289 291 294 296 299 299 299 301 302 303 304 304 303 301
15 15 15 16 14 11 5 359 353 343 333 330 326 318 307 298 294 291 291 289 289 290 289 289 290 292 295 297 298 300 301 303 304 305 305 306 305 302
17 15 13 10 6 1 358 355 350 343 335 330 327 320 311 304 299 295 293 293 295 293 292 293 295 296 298 299 299 300 302 304 305 306 306 307 305 302
9 8 6 2 359 356 353 349 346 340 334 329 325 319 312 308 304 300 297 296 297 296 295 295 296 298 300 301 301 302 302 303 305 305 306 305 304 302
358 356 355 354 353 350 347 342 338 334 330 327 324 317 310 307 305 302 298 295 296 296 296 296 297 298 300 300 301 303 304 305 305 306 306 306 305 304
347 345 344 342 340 338 337 335 332 329 325 322 319 313 310 308 305 302 298 296 295 295 295 296 297 298 299 300 301 303 304 305 305 306 305 305 304 304
Height
5743 5742 5742 5741 5741 5742 5742 5743 5744 5745 5747 5747 5748 5750 5751 5753 5754 5756 5758 5760 5762 5763 5765 5767 5768 5769 5770 5771 5772 5773 5774 5775 5775 5776 5777 5777 5777 5778
5736 5736 5735 5735 5735 5735 5735 5736 5737 5738 5739 5740 5740 5742 5743 5745 5746 5748 5750 5752 5754 5756 5757 5759 5760 5762 5763 5764 5764 5765 5766 5767 5767 5768 5768 5769 5769 5769
5731 5730 5729 5729 5728 5729 5729 5729 5730 5730 5731 5732 5733 5734 5736 5737 5739 5740 5742 5744 5746 5748 5750 5751 5753 5754 5755 5756 5757 5757 5758 5758 5759 5759 5759 5760 5760 5760
5725 5724 5723 5723 5722 5722 5723 5723 5723 5723 5724 5725 5726 5727 5729 5730 5732 5733 5735 5737 5739 5741 5742 5744 5745 5746 5747 5748 5749 5749 5750 5750 5750 5751 5751 5751 5751 5751
5719 5718 5717 5717 5716 5716 5716 5717 5717 5717 5718 5719 5720 5721 5722 5723 5725 5726 5728 5730 5732 5733 5735 5736 5738 5739 5740 5740 5741 5741 5742 5742 5742 5742 5742 5742 5742 5742
5714 5713 5712 5711 5711 5710 5710 5711 5711 5712 5712 5713 5714 5715 5716 5717 5719 5720 5721 5723 5725 5726 5728 5729 5730 5731 5732 5733 5733 5734 5734 5734 5734 5734 5734 5734 5734 5734
5709 5708 5707 5707 5706 5706 5705 5705 5705 5706 5706 5707 5708 5709 5710 5711 5713 5714 5715 5717 5718 5719 5721 5722 5723 5724 5725 5726 5726 5726 5726 5726 5727 5727 5727 5727 5727 5727
5705 5704 5703 5702 5701 5701 5701 5700 5700 5701 5701 5702 5703 5704 5705 5706 5707 5708 5709 5711 5712 5714 5714 5715 5716 5717 5718 5719 5719 5719 5720 5720 5720 5720 5720 5720 5720 5720
5701 5700 5699 5698 5697 5696 5696 5696 5696 5696 5697 5697 5698 5698 5699 5700 5702 5703 5704 5705 5707 5708 5709 5709 5710 5711 5711 5712 5713 5713 5713 5713 5713 5714 5714 5713 5713 5712
5698 5696 5695 5694 5693 5692 5692 5692 5691 5692 5692 5693 5694 5694 5695 5696 5697 5699 5699 5701 5702 5703 5704 5705 5705 5706 5706 5707 5707 5707 5707 5707 5707 5707 5707 5706 5706 5705
5695 5693 5692 5691 5690 5689 5689 5688 5688 5688 5689 5689 5690 5690 5691 5692 5693 5695 5696 5697 5698 5699 5700 5701 5701 5702 5702 5702 5701 5701 5701 5701 5701 5701 5700 5699 5698 5697
5693 5691 5690 5688 5687 5686 5686 5685 5686 5686 5686 5686 5687 5687 5688 5689 5690 5691 5692 5693 5694 5695 5696 5696 5697 5697 5698 5698 5697 5697 5696 5696 5695 5695 5694 5693 5692 5690
5692 5690 5688 5687 5685 5685 5684 5684 5684 5684 5684 5684 5685 5685 5686 5687 5687 5688 5689 5690 5691 5692 5692 5692 5692 5692 5693 5693 5693 5692 5691 5691 5690 5689 5688 5686 5685 5683
5691 5689 5687 5686 5684 5684 5683 5682 5682 5682 5682 5683 5683 5684 5684 5684 5685 5685 5686 5687 5687 5688 5688 5688 5688 5688 5688 5688 5688 5688 5687 5686 5685 5684 5682 5680 5678 5677
5691 5689 5687 5686 5684 5683 5682 5682 5681 5681 5681 5681 5682 5682 5683 5683 5683 5683 5683 5684 5684 5684 5684 5685 5685 5685 5685 5685 5684 5684 5683 5681 5680 5678 5676 5674 5672 5670
5692 5690 5688 5686 5685 5683 5682 5682 5681 5680 5680 5681 5681 5681 5681 5681 5681 5681 5681 5682 5682 5682 5682 5682 5682 5682 5681 5681 5680 5679 5678 5676 5675 5673 5671 5669 5666 5664
5693 5691 5689 5687 5685 5684 5683 5681 5680 5680 5680 5680 5680 5680 5680 5680 5680 5680 5680 5680 5680 5680 5680 5679 5679 5678 5678 5677 5676 5674 5673 5671 5670 5668 5666 5663 5660 5657
5694 5692 5690 5688 5686 5685 5683 5682 5681 5680 5679 5679 5679 5679 5678 5678 5678 5678 5678 5678 5677 5677 5677 5676 5675 5675 5674 5673 5671 5669 5668 5666 5664 5661 5659 5656 5654 5651
5696 5693 5691 5689 5687 5686 5684 5683 5682 5681 5680 5679 5678 5677 5677 5677 5676 5676 5676 5675 5675 5674 5673 5672 5671 5670 5669 5668 5667 5664 5662 5660 5658 5655 5652 5650 5647 5644
5697 5695 5693 5691 5689 5687 5685 5683 5682 5681 5679 5678 5677 5676 5675 5674 5674 5673 5673 5672 5671 5670 5669 5668 5667 5665 5664 5663 5661 5659 5656 5654 5651 5648 5646 5642 5639 5636
5698 5696 5694 5691 5689 5687 5685 5683 5682 5680 5679 5677 5676 5674 5673 5672 5671 5670 5669 5669 5668 5666 5665 5664 5662 5661 5659 5657 5655 5653 5651 5647 5644 5641 5638 5635 5632 5629
5699 5696 5694 5692 5689 5687 5685 5683 5681 5679 5677 5676 5674 5672 5671 5670 5668 5667 5666 5665 5663 5662 5661 5659 5657 5655 5653 5651 5648 5646 5644 5641 5637 5633 5629 5626 5623 5620
5698 5696 5693 5691 5689 5687 5684 5682 5680 5677 5675 5673 5671 5670 5668 5666 5665 5663 5662 5660 5658 5657 5655 5653 5651 5649 5647 5644 5642 5639 5636 5633 5629 5626 5623 5618 5614 5611